Flag for China Weather past 2 weeks in Suzhou, Jiangsu, China

Now
84 °F

Passing clouds.


Feels Like: 86 °F
Forecast: 65 / 78 °F
Wind: 6 mph from West

Location: Shanghai Hongqiao Airport

Current Time: Mar 31, 2015 at 2:42:59 PM

Latest Report: Mar 31, 2015 at 2:00 PM


Visibility: N/A

Pressure: 29.77 "Hg

Humidity: 51%

Dew point: 64 °F

Location of SuzhouLocation

Historic Weather in Suzhou — Graph

°F

Suzhou temperature yesterday

Maximum temperature yesterday: 63 °F (at 12:00 AM)
Minimum temperature yesterday: 57 °F (at 8:00 AM)
Average temperature yesterday: 61 °F

Past Weeks' High & Low Weather Summary

 TemperatureHumidityPressure
High86 °F (Mar 31, 1:00 PM)100% (Mar 16, 11:30 PM)30.57 "Hg (Mar 16, 11:30 PM)
Low46 °F (Mar 25, 5:30 AM)17% (Mar 22, 6:00 PM)29.62 "Hg (Mar 18, 4:00 AM)
Average58 °F71%30.14 "Hg
* Reported Mar 16 1:00 PM — Mar 31 1:30 PM, Suzhou, Weather by CustomWeather, © 2015

Note: Actual official high and low records may vary slightly from our data, if they occured in-between our weather recording intervals... More about our weather records

Advertising

Suzhou weather history for previous 24 hours

 ConditionsComfort  
Time TempWeatherWind HumidityBarometerVisibility
1:30 PM
Tue, Mar 31
84 °FPassing clouds.8 mph55%29.77 "HgN/A
1:00 PM86 °FPassing clouds.8 mph52%29.80 "HgN/A
12:30 PM84 °FSunny.10 mph55%29.80 "Hg10 mi
12:00 PM81 °FPassing clouds.13 mph58%29.83 "HgN/A
11:30 AM81 °FSunny.10 mph58%29.83 "Hg10 mi
10:30 AM79 °FPassing clouds.8 mph58%29.86 "HgN/A
10:00 AM77 °FSunny.8 mph61%29.89 "Hg10 mi
9:30 AM73 °FClear.6 mph69%29.89 "Hg4 mi
9:00 AM72 °FClear.6 mph73%29.89 "Hg4 mi
8:30 AM70 °FClear.6 mph73%29.89 "Hg4 mi
8:00 AM66 °FFog.6 mph83%29.89 "Hg2 mi
7:30 AM63 °FFog.3 mph88%29.89 "Hg2 mi
7:00 AM61 °FFog.3 mph94%29.86 "Hg2 mi
6:30 AM59 °FFog.3 mph100%29.86 "Hg1 mi
6:00 AM59 °FFog.3 mph94%29.86 "Hg1 mi
5:30 AM59 °FFog.6 mph94%29.86 "Hg2 mi
5:00 AM59 °FFog.6 mph94%29.86 "Hg2 mi
4:30 AM59 °FFog.3 mph94%29.86 "Hg2 mi
4:00 AM59 °FFog.3 mph100%29.86 "Hg2 mi
3:30 AM61 °FFog.6 mph94%29.86 "Hg2 mi
3:00 AM59 °FFog.3 mph100%29.86 "Hg2 mi
2:30 AM61 °FFog.3 mph94%29.86 "Hg2 mi
2:00 AM61 °FFog.3 mph94%29.86 "Hg2 mi
1:30 AM61 °FFog.6 mph94%29.86 "Hg3 mi
1:00 AM61 °FFog.3 mph94%29.89 "Hg3 mi
12:30 AM61 °FClear.6 mph94%29.89 "Hg4 mi
12:00 AM61 °FClear.3 mph94%29.89 "Hg4 mi
11:30 PM
Mon, Mar 30
61 °FPassing clouds.6 mph94%29.89 "Hg4 mi
11:00 PM61 °FPassing clouds.6 mph94%29.92 "Hg4 mi
10:30 PM61 °FPassing clouds.8 mph94%29.92 "Hg4 mi
10:00 PM61 °FPassing clouds.10 mph94%29.92 "Hg4 mi
9:30 PM61 °FPassing clouds.8 mph94%29.92 "HgN/A
9:00 PM61 °FPassing clouds.8 mph88%29.92 "HgN/A
8:30 PM61 °FPassing clouds.6 mph94%29.92 "HgN/A
8:00 PM61 °FPassing clouds.6 mph88%29.92 "HgN/A
7:30 PM61 °FPassing clouds.8 mph88%29.89 "HgN/A
7:00 PM61 °FPassing clouds.8 mph88%29.89 "HgN/A
6:30 PM61 °FPassing clouds.8 mph88%29.89 "HgN/A
6:00 PM61 °FScattered clouds.10 mph88%29.89 "HgN/A
5:30 PM61 °FScattered clouds.13 mph88%29.89 "HgN/A
5:00 PM63 °FPartly sunny.13 mph83%29.89 "HgN/A
4:30 PM63 °FPartly sunny.10 mph83%29.89 "HgN/A
4:00 PM63 °FPartly sunny.10 mph88%29.89 "Hg5 mi
3:30 PM63 °FPartly sunny.13 mph88%29.89 "Hg5 mi
3:00 PM61 °FPartly sunny.13 mph88%29.89 "Hg5 mi
2:30 PM61 °FPartly sunny.10 mph94%29.89 "Hg5 mi
2:00 PM61 °FPartly sunny.10 mph88%29.92 "Hg5 mi
Weather by CustomWeather, © 2015

See weather overviewHow to use our weather pages